Starlink 30215

operational
NORAD ID: 57445 Int'l Des: 2023-105 Owner: SPXS Country: US Constellation: starlink
LEOCIRCULAR

Starlink 30215について

説明を読み込み中...

リアルタイム位置

3D地球を読み込み中...

次回通過

高度履歴

Altitude vs Time

uPlot chart will show altitude changes over time

軌道要素

1 57445U 23105R 25351.26866461 -.00000670 00000-0 -34497-4 0 9997
2 57445 43.0037 349.3908 0001353 272.7954 87.2733 15.02532268133009
Epoch: Dec 17, 2025 • Age: 11 hours

現在のステータス

高度 559.3 km
速度 7.59 km/s
衛星直下点 23.86°N, 21.72°E
打ち上げ日 Jul 24, 2023
運用期間 2.4 years
タイプ internet

技術仕様

分類 Payload
質量 730.00 kg
乾燥質量 700.00 kg
総質量 730.00 kg
長さ 0.30 m
直径 4.10 m
スパン 29.00 m
形状 Box + pan
製造者 SPXS
バスタイプ Starlink V2M
フェーズステータス In Orbit
所有者/国 SPXS/US

大規模コンステレーション

Loading constellations...